Simultaneous Nadir Overpasses (SNOs) Predictions

Prediction of SNOs between METOP-A and NOAA-19 Satellite Orbit:

Table of predicted SNOs for the next 14.0 days since TLE Epoch: 6/29/2012
Index Date (METOP-A) Time (METOP-A) METOP-A Lat,Lon Date (NOAA-19) Time (NOAA-19) NOAA-19 Lat,Lon Distance(km) Time Diff (sec)
1 07/05/2012 03:09:31 -73.13, -54.66 07/05/2012 03:08:20 -73.10, -54.62 3.08 71
2 07/05/2012 04:00:11 73.08, 112.58 07/05/2012 03:59:18 73.10, 112.66 2.87 53
3 07/05/2012 04:50:53 -73.11, -80.04 07/05/2012 04:50:25 -73.09, -80.12 2.81 28
4 07/05/2012 05:41:33 73.06, 87.19 07/05/2012 05:41:23 73.08, 87.16 2.87 10
5 07/05/2012 06:32:16 -73.03,-105.54 07/05/2012 06:32:29 -73.03,-105.50 1.29 13
6 07/05/2012 07:22:55 73.04, 61.80 07/05/2012 07:23:27 73.02, 61.77 1.88 32
7 07/05/2012 08:13:38 -73.01,-130.93 07/05/2012 08:14:34 -73.02,-131.00 2.46 56
8 07/05/2012 09:04:18 72.96, 36.31 07/05/2012 09:05:31 72.96, 36.39 2.64 73




NCC Satellite Simultaneous Nadir Overpasses (SNOs) Prediction Service
